Terug naar catalogus

BREEZE-M DEB

LostHEO
NORAD 48536·DEBRIS·🇷🇺 Russia

Gelanceerd Mar 14, 2008 vanaf Baikonur Cosmodrome

Loading…

Volgende Passages (komende 24 uur)

TLE

VerouderdSource: Space-Track

Epoch: Jun 8, 2022, 23:22 UTC

1 48536U 08011EB  22159.97361148 -.00000160  00000-0 -27201-4 0  9999
2 48536  49.2637  21.5579 6458148 249.3655  33.4419  3.14458743 83507

Volg BREEZE-M DEB in realtime met AllMySat

Download on the App Store